Back to catalog

COSMOS 375 DEB

AliveLEO
NORAD 4629·DEBRIS·🇷🇺 Russia

Launched Oct 30, 1970 from Baikonur Cosmodrome

Loading…

Next Passes (next 24 hours)

TLE

FreshSource: Space-Track

Epoch: Sep 14, 2026, 04:55 UTC

1 04629U 70091J   26257.20519547  .00000314  00000-0  12387-3 0  9995
2 04629  62.8369  72.4397 0971501  76.4106 294.3088 13.03275130641422

Track COSMOS 375 DEB in real time with AllMySat

Download on the App Store